Regional Weather Roundup
Issued by NWS State College, PA

Home | Current Version | Previous Version | Graphics & Text | Print | Product List | Glossary On
Versions: 1 2 3 4 5 6 7 8 9 10 11 12 13 14 15 16 17 18 19 20 21 22 23 24 25 26 27 28 29 30 31 32 33 34 35 36 37 38 39 40 41 42 43 44 45 46 47 48 49 50
000
ASUS41 KCTP 301803
RWRCTP

REGIONAL WEATHER ROUNDUP
NATIONAL WEATHER SERVICE STATE COLLEGE PA
200 PM EDT TUE SEP 30 2014

Note: "fair" indicates few or no clouds below 12,000 feet with no
significant weather and/or obstructions to visibility.

* = STATION THAT DOES NOT REPORT PRECIPITATION /E.G. RAIN...SNOW...ETC/
    THUNDER OR FOG.

PAZ002>004-007>009-013>016-020>023-029>032-301900-
WESTERN PENNSYLVANIA

CITY           SKY/WX    TMP DP  RH WIND       PRES   REMARKS
ERIE           LGT RAIN  63  57  81 S9        29.90S
MEADVILLE      CLOUDY    60  56  86 VRB3      29.91F
FRANKLIN*      CLOUDY    59  54  82 E3        29.93
NEW CASTLE       N/A     63  58  83 CALM      29.93S
BEAVER COUNTY  MOSUNNY   63  59  88 CALM      29.92F
BUTLER*        CLOUDY    63  54  72 SW6       29.95F
PITTSBURGH INT LGT RAIN  60  58  92 SE8       29.90F
PITTSBURGH     PTSUNNY   67  50  54 NW8       29.92S
INDIANA*       PTSUNNY   73  57  56 W8        29.93S
LATROBE        PTSUNNY   75  57  53 W12G17    29.90F
WASHINGTON CO* CLOUDY    61  55  82 CALM      29.95F
$$

PAZ004>006-010>012-017>019-024>028-033>037-041-042-045-046-049>053-301900-
CENTRAL PENNSYLVANIA

CITY           SKY/WX    TMP DP  RH WIND       PRES   REMARKS
BRADFORD       PTSUNNY   70  52  52 W5        29.91F
DUBOIS         TSTM      64  58  80 W13       29.90S
CLEARFIELD     MOSUNNY   76  56  49 VRB3      29.88F
JOHNSTOWN      MOSUNNY   74  49  41 W15       29.91F
ALTOONA        PTSUNNY   72  59  63 E5        29.90F
STATE COLLEGE  PTSUNNY   72  61  68 CALM      29.89F
WILLIAMSPORT   CLOUDY    69  59  70 W3        29.90F
SELINSGROVE    MOSUNNY   72  62  71 SW5       29.90F HAZE
FT INDIANTOWN  MOSUNNY   73  62  67 VRB1      29.91F
CAPITAL CITY   PTSUNNY   70  60  70 N5        29.91F
HARRISBURG     CLOUDY    70  60  70 NW5       29.90F
YORK           PTSUNNY   73  62  68 VRB5      29.90F
$$

PAZ038>040-043-044-047-048-054-055-060>062-067>071-301900-
EASTERN PENNSYLVANIA

CITY           SKY/WX    TMP DP  RH WIND       PRES   REMARKS
SCRANTON       CLOUDY    73  57  57 W7        29.90F
MOUNT POCONO   PTSUNNY   70  53  54 S7        29.96F
ALLENTOWN      MOSUNNY   74  55  51 E7        29.91F
QUAKERTOWN*    PTCLDY    75  54  46 SE6       29.92F
READING        MOSUNNY   78  56  46 S6        29.90F
LANCASTER      PTSUNNY   75  56  51 VRB3      29.90F
COATESVILLE    PTCLDY    73  59  60 SE5       29.92F
POTTSTOWN      PTSUNNY   76  55  48 VRB6      29.91F
BLUE BELL      SUNNY     77  54  44 SE8       29.90F
DOYLESTOWN     MOSUNNY   77  52  41 VRB6      29.91F
WILLOW GROVE   NOT AVBL
NORTH PHILA    SUNNY     77  52  41 VRB5      29.92F
PHILADELPHIA   MOSUNNY   77  54  44 CALM      29.91F
$$



USA.gov is the U.S. government's official web portal to all federal, state and local government web resources and services.